Location: Newark
(41.6500°N, 71.4833°W)
Time: 07:24:36
(UTC+00:00)

Courier 1B - Pass Details

Date: 28 January 2020
Orbit: 962 x 1209 km, 28.3° (Epoch: 20 February)

Event Time Altitude Azimuth Distance (km) Brightness Sun altitude
Rises 06:02:19 0° 222° (SW) 3,738 - -63.0°
Reaches altitude 10° 06:05:44 10° 206° (SSW) 2,830 - -62.6°
Maximum altitude 06:10:29 20° 162° (SSE) 2,253 - -62.1°
Drops below altitude 10° 06:15:26 10° 119° (ESE) 2,962 - -61.5°
Sets 06:19:06 0° 103° (ESE) 3,969 - -61.1°
